Regional Weather Roundup
Issued by NWS Grand Forks, ND

Home | Current Version | Previous Version | Graphics & Text | Print | Product List | Glossary On
Versions: 1 2 3 4 5 6 7 8 9 10 11 12 13 14 15 16 17 18 19 20 21 22 23 24 25 26 27 28 29 30 31 32 33 34 35 36 37 38 39 40 41 42 43 44 45 46 47 48 49 50
000
ASUS43 KFGF 061931
RWRFGF
PRAIRIE TO PINES  WEATHER ROUNDUP
NATIONAL WEATHER SERVICE EASTERN NORTH DAKOTA/GRAND FORKS ND
200 PM CDT MON JUL 06 2015

 **SATELLITE DATA USED TO AUGMENT SKY COVER AT AUTOMATED STATIONS**
 *****  WEATHER ACROSS EASTERN NORTH DAKOTA  *****

CITY           SKY/WX    TMP DP  RH WIND       PRES   REMARKS
GRAND FORKS    PTSUNNY   63  50  62 N13G21    30.10S
GRAND FRKS AFB PTSUNNY   62  49  62 N12       30.12R
GRAND FRKS NWS   N/A     61 N/A N/A VRB5        N/A
DEVILS LAKE    CLOUDY    61  46  59 N9        30.13S
FARGO          MOSUNNY   68  48  48 N24       30.08S
WAHPETON ARPT  CLEAR     66  46  48 N20G26    30.07R
$$

 ***** WEATHER ACROSS CENTRAL AND WESTERN NORTH DAKOTA  *****

CITY           SKY/WX    TMP DP  RH WIND       PRES   REMARKS
BISMARCK       CLOUDY    69  53  56 NE13      30.15F HAZE
MINOT          PTSUNNY   63  49  60 N8        30.17F
JAMESTOWN      PTSUNNY   64  52  64 N10       30.12S
MINOT AFB      MOSUNNY   67  52  60 N6        30.17S
GARRISON         N/A     61  53  75 N5        30.17R
WILLISTON      PTSUNNY   67  50  54 N12       30.20S HAZE
DICKINSON      CLOUDY    66  51  58 N15       30.17F
HETTINGER      PTSUNNY   69  50  50 NW8       30.21S
$$

 *****  OTHER AIRPORT OBSERVATIONS IN OUR AREA  *****

CITY           SKY/WX    TMP DP  RH WIND       PRES   REMARKS
WALHALLA       FAIR      63  48  59 MISG      30.13S
GRAFTON AIRPOR MOCLDY    61  50  67 N14       30.12S
VALLEY CITY AR MOCLDY    66  50  55 N15       30.11F
CANDO          MOCLDY    64  48  55 NW12      30.15S
CAVALIER APRT  FAIR      63  50  63 N10       30.12S
GWINNER        FAIR      70  52  52 N15G23    30.11R
ROLLA          FAIR      61  45  55 N15G21    30.16S
 ***** THE ABOVE OBSERVATIONS ARE NON NWS ARE NOT QUALITY
       CONTROLLED AND MAY MIS-REPORT RAIN FOR SNOW...
$$

  *****  WEATHER ACROSS NORTHERN MINNESOTA  *****

CITY           SKY/WX    TMP DP  RH WIND       PRES   REMARKS
FLAG ISLAND    PTSUNNY   59  45  58 NW22      30.03S
WARROAD        PTSUNNY   61  48  63 NW13      30.06S
ROSEAU         PTSUNNY   61  48  63 NW12G18   30.06S
HALLOCK        PTSUNNY   61  46  59 N16G25    30.10R
THF RVR FALLS  CLOUDY    61  45  55 NW14G22   30.09R
BAUDETTE       PTSUNNY   61  46  57 NW17      30.02S
WASKISH        CLOUDY    61  46  59 NW10G16   30.03S
CROOKSTON      CLOUDY    61  50  67 N16       30.11R
STEPHEN NDAWN    N/A     61  50  67 N15         N/A
GREENBUSH NDAW   N/A     59  46  63 N13         N/A
$$
  *****  WEATHER ACROSS CENTRAL AND WEST MINNESOTA  *****

CITY           SKY/WX    TMP DP  RH WIND       PRES   REMARKS
FOSSTON        CLOUDY    61  46  59 NW17      30.07S
BEMIDJI        CLOUDY    61  46  57 N13G21    30.04R
PARK RAPIDS    MOSUNNY   65  47  52 NW20G25   30.02R
ELBOW LAKE     FAIR      67  51  56 NW18G25   30.04R
WADENA         MOSUNNY   66  50  55 NW16      30.01S
DETROIT LAKES  MOSUNNY   64  46  52 N18G29    30.06S
MOORHEAD       SUNNY     66  48  52 N20G29    30.08S
FERGUS FALLS   SUNNY     66  48  52 N25G33    30.04S
MORRIS MN      SUNNY     70  54  56 N20G26    30.02R
STAPLES        SUNNY     70  50  49 NW14G20   29.99S
$$
  *****  WEATHER ELSEWHERE ACROSS MINNESOTA  *****

CITY           SKY/WX    TMP DP  RH WIND       PRES   REMARKS
DULUTH         CLOUDY    63  59  87 N5        29.93F FOG
INTRNTL FALLS  CLOUDY    61  45  55 NW15G22   29.99S
ELY            PTSUNNY   61  52  72 CALM      29.94S
CLOQUET        CLOUDY    64  57  77 N14       29.95S HAZE
WHEATON        SUNNY     66  52  59 N18G26    30.07S
BRAINERD       PTSUNNY   69  54  58 N10       29.97F
HIBBING        PTSUNNY   65  51  60 NW12      29.96R
ALEXANDRIA     SUNNY     69  52  54 N18G25    30.02S
SAINT CLOUD    CLOUDY    68  60  75 N14G21    29.95R HAZE
MINNEAPOLIS    LGT RAIN  65  61  87 N12       29.91R FOG
$$

  *****  WEATHER ACROSS SOUTH DAKOTA  *****

CITY           SKY/WX    TMP DP  RH WIND       PRES   REMARKS
SIOUX FALLS    CLOUDY    72  61  68 N20G29    30.01R HAZE
BROOKINGS      MOSUNNY   70  59  68 N21G29    30.05S
WATERTOWN      MOSUNNY   70  55  59 N22G30    30.05S HAZE
HURON          PTSUNNY   73  58  59 N18G25    30.07S HAZE
SISSETON         N/A     69  52  54 N18G28    30.06S
ABERDEEN       MOSUNNY   71  55  56 N18       30.10R
MITCHELL       CLOUDY    75  61  61 N17G26    30.06R HAZE
PIERRE         MOSUNNY   75  55  49 N15       30.12S
MOBRIDGE       MOSUNNY   74  52  46 N12       30.12S HAZE
RAPID CITY     CLOUDY    68  54  60 NW9       30.23F
$$

  *****  SOME WEATHER IN NEARBY STATES *****

CITY           SKY/WX    TMP DP  RH WIND       PRES   REMARKS
GLASGOW MT     MOSUNNY   71  44  37 SW10      30.19F
GREAT FALLS MT MOSUNNY   66  49  54 VRB3      30.18F
CHEYENNE WY    CLOUDY    56  52  86 NE8       30.34R FOG
SCOTTSBLUFF NE CLOUDY    65  52  62 N8        30.26S HAZE
OMAHA NE       CLOUDY    76  71  85 W3        29.92R
DES MOINES IA  LGT RAIN  77  70  79 NW10      29.88R
DAVENPORT IA   LGT RAIN  77  72  84 CALM      29.89F
CHICAGO IL     TSTM      73  68  84 W8        29.93R
EAU CLAIRE WI  RAIN      64  62  93 N13G25    29.81R FOG
LA CROSSE WI   CLOUDY    76  68  76 SW6       29.82R
$$

  *****  SOME NATIONAL WEATHER *****

CITY           SKY/WX    TMP DP  RH WIND       PRES   REMARKS
LA GUARDIA NY  PTSUNNY   81  65  58 S10       30.14F
RALEIGH NC     MOSUNNY   88  68  51 W13       30.09F HX  91
ATLANTA GA     PTSUNNY   79  70  73 W14G20    30.15S
NEW ORLEANS LA PTSUNNY   91  75  59 SE8       30.14F HX 101
OKLAHOMA CITY  MOSUNNY   89  75  63 S18       29.93F HX  99
ALBUQUERQUE NM MOSUNNY   84  53  34 W8        30.15F
SALT LAKE CITY PTSUNNY   83  59  44 NW10      30.10F
LOS ANGELES CA CLOUDY    66  60  81 W6        30.06F
BOISE ID       MOSUNNY   87  50  27 W6        30.06F
SEATTLE WA     PTSUNNY   76  56  49 SW12      30.02S
$$

*** WEATHER ACROSS MANITOBA...SASKATCHEWAN AND ONTARIO ***
                ***ONTARIO***

CITY           SKY/WX    TMP DP  RH WIND       PRES   REMARKS
GERALDTON      CLOUDY    63  54  72 NW8       29.85R
THUNDER BAY    CLOUDY    66  57  72 NW7       29.88R HAZE
SIOUX LOOKOUT  PTSUNNY   55  45  67 N9G17     29.98R
TORONTO        MOSUNNY   79  63  57 SE12      30.03F
BIG TROUT LK   LGT RAIN  48  45  87 NW14G25   29.85R
PICKLE LAKE    CLOUDY    55  41  58 NW14G23   29.91R
DRYDEN         CLOUDY    55  41  58 NW12G20   30.00S
KENORA         PTSUNNY   57  41  54 N14G25    30.04S
$$
                *** MANITOBA***

CITY           SKY/WX    TMP DP  RH WIND       PRES   REMARKS
BRANDON        MOSUNNY   64  46  52 N7        30.16F
DAUPHIN        SUNNY     64  43  45 VRB9      30.17S
ISLAND LAKE    PTSUNNY   61  41  48 NW13G21   30.01S
PILOT MOUND      N/A     61  45  55 N12G20      N/A
THE PAS        MOSUNNY   70  39  32 NW8       30.10F
THOMPSON       MOSUNNY   70  45  40 W12G17    29.98F
WINNIPEG       PTSUNNY   61  46  59 NW15      30.12F
LYNN LAKE      SUNNY     72  41  33 NW14G21   29.97F
CHURCHILL      MOSUNNY   57  41  54 NE7       29.87F
GILLAM         MOSUNNY   64  45  48 NW16G23   29.92F
$$
                ***SASKATCHEWAN***

CITY           SKY/WX    TMP DP  RH WIND       PRES   REMARKS
ESTEVAN        PTSUNNY   64  45  48 VRB6      30.20S
KINDERSLEY     PTSUNNY   63  52  67 SW7       30.17
LLOYDMINSTER   CLOUDY    63  43  48 SW7       30.16S
PRINCE ALBERT    N/A     66  45  45 SW10      30.14F SMOKE
REGINA         MOSUNNY   68  43  40 W8        30.20S
YORKTON        SUNNY     66  39  37 N6        30.17F
N. BATTLEFORD  SUNNY     66  45  45 SW7       30.18F
LA RONGE       SMOKE     72  45  37 SW12G17   30.07  VSB 1
SASKATOON      MOSUNNY   68  43  40 SW12      30.19F
SWIFT CURRENT  SUNNY     66  46  48 SW8       30.18F
$$
NOTE: THESE ARE AUTOMATED STATIONS WITH LIMITED QUALITY CONTROL
      "FAIR" INDICATES FEW OR NO CLOUDS BELOW 12,000 FEET WITH NO
      SIGNIFICANT WEATHER AND/OR OBSTRUCTIONS TO VISIBILITY.
      SKY/WX - SKY CONDITION AND SIGNIFICANT WEATHER.
      TMP - AIR TEMPERATURE.    DP   - DEWPOINT TEMPERATURE.
      RH  - RELATIVE HUMIDITY.  PRES - PRESSURE.
      HX  - HEAT INDEX.         WCI  - WIND CHILL INDEX.
$


USA.gov is the U.S. government's official web portal to all federal, state and local government web resources and services.